sat.trackr.live / text

‹ back to catalog

BEIDOU-3S IGSO-2S (C56)

NORAD 40938 · 2015-053A

PAYLOAD INACTIVE UNKNOWN

§ Identity

Operator
Country
PRC
Launch date
2015-09-29
Launch site
XICLF
Launch vehicle
Mass (kg)
RCS (m²)
61.22

Purposes: comms, nav

External: N2YO · Heavens-Above · Gunter

§ Orbital elements

Epoch: 2026-05-24T19:07:21.692640Z

Period
1,436.19 min
Inclination
49.2576°
Eccentricity
0.0064721
Mean motion
1.00265134 rev/d
Perigee alt
35,515.6 km
Apogee alt
36,061.4 km
Semi-major
42,166.6 km
B*
0.0000e+0
RAAN
259.0593°
Arg perigee
191.3362°
Mean anomaly
175.0261°
Rev number
3,912

§ Raw data

BEIDOU-3S IGSO-2S (C56)1 40938U 15053A   26144.79677885 -.00000178  00000+0  00000+0 0  99972 40938  49.2576 259.0593 0064721 191.3362 175.0261  1.00265134 39126

JSON: /api/v1/satellites/40938 · /tle

For live sub-satellite position, see the globe view (requires WebGL).

§ Visibility from observer

Set your observer location to see the next 7 days of passes ≥ 10°. The values pass through the URL so the page stays shareable.

No JS? Fill the form by hand. The geolocation button needs JavaScript.